Skip Page Navigation
NASA JPL Caltech
NASA Logo - Jet Propulsion Laboratory + View the NASA Portal
+ Near-Earth Object (NEO) Program
Search JPL
JPL Home Earth Solar System Stars & Galaxies Technology
JPL Solar System Dynamics
BODIES ORBITS EPHEMERIDES TOOLS PHYSICAL DATA DISCOVERY FAQ SITE MAP
JPL Small-Body Database Browser
Search: [ help ]  
30564 Olomouc (2001 OC77)
Classification: Main-belt Asteroid          SPK-ID: 2030564
Ephemeris | Orbit Diagram | Orbital Elements | Physical Parameters | Discovery Circumstances ]

[ show orbit diagram ]
Orbital Elements at Epoch 2456400.5 (2013-Apr-18.0) TDB
Reference: MPO231625 (heliocentric ecliptic J2000)
 Element Value Uncertainty (1-sigma)   Units 
e 0.1439679 n/a  
a 2.5979383 n/a AU
q 2.2239186 n/a AU
i 3.89628 n/a deg
node 165.15837 n/a deg
peri 283.39665 n/a deg
M 160.15544 n/a deg
tp 2455720.0740283
(2011-Jun-07.57402830)
n/a JED
period 1529.4725537
4.19
n/a
n/a
d
yr
n 0.23537526 n/a deg/d
Q 2.9719580 n/a AU
  Orbit Determination Parameters
   # obs. used (total)      619  
   first obs. used      1991-??-??  
   last obs. used      2012-05-17  
   # oppositions      14  
   planetary ephem.      DE403  
   condition code      0  
   fit RMS      0.54  
   data source      MPC:mpn  
   producer      MPCLINUX  

Additional Information
 T_jup = 3.398 

Ephemeris | Orbit Diagram | Orbital Elements | Physical Parameters | Discovery Circumstances ]

Physical Parameter Table
Parameter Symbol Value Units Sigma Reference Notes
absolute magnitude H 15.2 mag n/a PDS3 (MPO 16647)  

30564 Olomouc           Discovered 2001 July 28 by P. Pravec at Ondrejov.
The city of Olomouc is the center of the Haná region in the heart of Moravia. The seat of Catholic bishops since 1063 and Moravian primates since 1777, it has been home to a university since 1573, now called Palacký University.
NOTE: some special characters may not display properly (any characters within {} are an attempt to place the proper accent above a character)
Reference: 20030106/MPCPages.arcLast Updated: 2003-10-02

Alternate Designations
 2001 OC77 = 1991 ER2 = 1997 TJ1 
Ephemeris | Orbit Diagram | Orbital Elements | Physical Parameters | Discovery Circumstances ]
ABOUT SSD CREDITS/AWARDS PRIVACY/COPYRIGHT GLOSSARY LINKS
FirstGov 2013-May-25 12:06 UT
(server date/time)  
NASA Home Page
Site Manager:   Donald K. Yeomans
Webmaster  Alan B. Chamberlin